Погода в Оруро

Боливия     17°58′17″S   67°05′36″W
темп.,
°C
ветер,
м/с
пор.,
м/с
влажн.,
%
обл.,
%
осадки,
мм/ч
давл.,
гПа
погр.,
м
7 мая, пт
пт723:00+8св1257100 0.1 1018162
02:00+7сз1168100 0.1 101839
05:00+6сз1179100 0.0 101817
08:00+7в1174100 0.0 1019185
11:00+11зсз2250100 0.0 10171135
14:00+13з223562 0.0 10121660
17:00+14юз4331100 0.0 10101969
20:00+11ю2337100 0.1 101477
8 мая, сб
сб823:00+10з3444100 0.2 1017331
02:00+8с2363100 0.2 1017234
05:00+7з116832 0.0 101710
08:00+8с226311 0.0 1019223
11:00+12сз224367 0.0 10181165
14:00+15зсз353190 0.0 10122235
17:00+13сз343799 0.3 1012789
20:00+10всв33415 0.3 101535
9 мая, вс
вс923:00+8ю22515 0.0 101816
02:00+5юв117299 0.0 101911
05:00+5св116998 0.0 101810
08:00+7ссв115255 0.0 1020129
11:00+11сз22345 0.0 10171015
14:00+15зсз33170 0.0 10122125
17:00+15сз33155 0.0 10112512
20:00+10св22320 0.0 101519
10 мая, пн
пн1023:00+7в11501 0.0 101910
02:00+6ссв225361 0.0 101810
05:00+5св22495 0.0 101810
08:00+7всв22375 0.0 1020115
11:00+12с34203 0.0 10171364
14:00+15с65244 0.0 10122495
17:00+13ссв65343 0.0 10121456
20:00+8всв34574 0.0 101781
11 мая, вт
вт1123:00+7всв226519 0.0 101927
02:00+5с117016 0.0 101914
05:00+4ссв227659 0.0 102016
08:00+6ссв126197 0.0 1020143
11:00+11ссз3441100 0.0 10171019
14:00+14сз452920 0.0 10102210
17:00+12с764164 0.0 10101123
20:00+9св226156 0.0 101467